Location: Maccacari
(45.1333°N, 11.1333°E)
Time: 11:36:00
(UTC+00:00)

Vanguard 2 - Pass Details

Date: 29 January 2021
Orbit: 552 x 2938 km, 32.9° (Epoch: 24 February)

Event Time Altitude Azimuth Distance (km) Brightness Sun altitude
Rises 16:03:05 0° 243° (WSW) 2,791 14.7 1.7°
Reaches altitude 10° 16:06:08 10° 219° (SW) 1,820 10.9 1.2°
Maximum altitude 16:08:29 15° 182° (S) 1,522 9.5 0.8°
Drops below altitude 10° 16:10:56 10° 145° (SE) 1,897 9.5 0.4°
Sets 16:14:13 0° 122° (ESE) 2,987 10.2 -0.1°
